Time,TemperatureF,DewpointF,PressureIn,WindDirection,WindDirectionDegrees,WindSpeedMPH,WindSpeedGustMPH,Humidity,HourlyPrecipIn,Conditions,Clouds,dailyrainin,SoftwareType,DateUTC
2013-02-19 00:12:00,15.9,5.0,30.38,ENE,66,0.0,1.0,63,0.00,,,0.00,weatherlink.com 1.10,2013-02-19 07:12:00,
2013-02-19 00:26:00,15.7,5.0,30.37,North,359,1.0,3.0,62,0.00,,,0.00,weatherlink.com 1.10,2013-02-19 07:26:00,
2013-02-19 00:41:00,15.6,5.0,30.37,North,359,0.0,2.0,64,0.00,,,0.00,weatherlink.com 1.10,2013-02-19 07:41:00,
2013-02-19 00:57:00,15.6,5.0,30.37,North,359,0.0,2.0,64,0.00,,,0.00,weatherlink.com 1.10,2013-02-19 07:57:00,
2013-02-19 01:12:00,15.2,6.0,30.36,North,359,0.0,1.0,67,0.00,,,0.00,weatherlink.com 1.10,2013-02-19 08:12:00,
2013-02-19 01:27:00,15.4,7.0,30.36,North,359,1.0,2.0,68,0.00,,,0.00,weatherlink.com 1.10,2013-02-19 08:27:00,
2013-02-19 01:42:00,15.4,6.0,30.35,West,259,1.0,6.0,67,0.00,,,0.00,weatherlink.com 1.10,2013-02-19 08:42:00,
2013-02-19 01:57:00,15.9,6.0,30.34,West,259,1.0,2.0,66,0.00,,,0.00,weatherlink.com 1.10,2013-02-19 08:57:00,
2013-02-19 02:12:00,15.6,7.0,30.34,West,259,0.0,1.0,68,0.00,,,0.00,weatherlink.com 1.10,2013-02-19 09:12:00,
2013-02-19 02:27:00,15.4,8.0,30.34,West,259,1.0,2.0,71,0.00,,,0.00,weatherlink.com 1.10,2013-02-19 09:27:00,
2013-02-19 02:42:00,15.4,8.0,30.33,West,259,0.0,2.0,71,0.00,,,0.00,weatherlink.com 1.10,2013-02-19 09:42:00,
2013-02-19 02:57:00,15.7,8.0,30.33,West,259,1.0,1.0,71,0.00,,,0.00,weatherlink.com 1.10,2013-02-19 09:57:00,
2013-02-19 03:12:00,15.6,8.0,30.32,West,259,1.0,2.0,71,0.00,,,0.00,weatherlink.com 1.10,2013-02-19 10:12:00,
2013-02-19 03:27:00,15.2,8.0,30.32,West,259,0.0,1.0,73,0.00,,,0.00,weatherlink.com 1.10,2013-02-19 10:27:00,
2013-02-19 03:42:00,15.1,8.0,30.31,West,259,1.0,2.0,73,0.00,,,0.00,weatherlink.com 1.10,2013-02-19 10:42:00,
2013-02-19 03:57:00,15.2,8.0,30.32,West,259,1.0,2.0,72,0.00,,,0.00,weatherlink.com 1.10,2013-02-19 10:57:00,
2013-02-19 04:12:00,15.1,7.0,30.32,West,259,0.0,0.0,70,0.00,,,0.00,weatherlink.com 1.10,2013-02-19 11:12:00,
2013-02-19 04:27:00,14.9,7.0,30.31,West,259,1.0,2.0,72,0.00,,,0.00,weatherlink.com 1.10,2013-02-19 11:27:00,
2013-02-19 04:42:00,14.6,7.0,30.31,West,259,2.0,3.0,73,0.00,,,0.00,weatherlink.com 1.10,2013-02-19 11:42:00,
2013-02-19 04:57:00,15.4,8.0,30.31,West,259,0.0,4.0,71,0.00,,,0.00,weatherlink.com 1.10,2013-02-19 11:57:00,
2013-02-19 05:12:00,15.2,7.0,30.31,West,259,0.0,2.0,71,0.00,,,0.00,weatherlink.com 1.10,2013-02-19 12:12:00,
2013-02-19 05:27:00,14.6,7.0,30.31,West,259,1.0,2.0,73,0.00,,,0.00,weatherlink.com 1.10,2013-02-19 12:27:00,
2013-02-19 05:42:00,14.8,7.0,30.31,West,259,1.0,3.0,72,0.00,,,0.00,weatherlink.com 1.10,2013-02-19 12:42:00,
2013-02-19 05:57:00,14.3,8.0,30.31,West,259,0.0,0.0,76,0.00,,,0.00,weatherlink.com 1.10,2013-02-19 12:57:00,
2013-02-19 06:12:00,14.3,8.0,30.31,West,259,2.0,3.0,75,0.00,,,0.00,weatherlink.com 1.10,2013-02-19 13:12:00,
2013-02-19 06:27:00,14.3,7.0,30.30,SW,218,4.0,4.0,73,0.00,,,0.00,weatherlink.com 1.10,2013-02-19 13:27:00,
2013-02-19 06:42:00,13.8,7.0,30.29,WSW,242,0.0,5.0,74,0.00,,,0.00,weatherlink.com 1.10,2013-02-19 13:42:00,
2013-02-19 06:57:00,13.6,7.0,30.29,WSW,241,0.0,4.0,74,0.00,,,0.00,weatherlink.com 1.10,2013-02-19 13:57:00,
2013-02-19 07:12:00,12.6,6.0,30.29,WSW,241,1.0,3.0,73,0.00,,,0.00,weatherlink.com 1.10,2013-02-19 14:12:00,
2013-02-19 07:27:00,12.1,6.0,30.29,WSW,241,3.0,5.0,75,0.00,,,0.00,weatherlink.com 1.10,2013-02-19 14:27:00,
2013-02-19 07:42:00,11.9,5.0,30.29,WSW,247,2.0,5.0,74,0.00,,,0.00,weatherlink.com 1.10,2013-02-19 14:42:00,
2013-02-19 07:57:00,11.2,5.0,30.30,WSW,247,1.0,4.0,75,0.00,,,0.00,weatherlink.com 1.10,2013-02-19 14:57:00,
2013-02-19 08:13:00,11.9,5.0,30.30,SSW,211,2.0,3.0,74,0.00,,,0.00,weatherlink.com 1.10,2013-02-19 15:13:00,
2013-02-19 08:27:00,13.1,6.0,30.29,WSW,237,2.0,5.0,72,0.00,,,0.00,weatherlink.com 1.10,2013-02-19 15:27:00,
2013-02-19 08:43:00,15.6,7.0,30.29,WSW,237,0.0,4.0,70,0.00,,,0.00,weatherlink.com 1.10,2013-02-19 15:43:00,
2013-02-19 08:57:00,18.9,9.0,30.29,WSW,237,0.0,2.0,64,0.00,,,0.00,weatherlink.com 1.10,2013-02-19 15:57:00,
2013-02-19 09:12:00,21.6,10.0,30.28,WSW,237,0.0,2.0,62,0.00,,,0.00,weatherlink.com 1.10,2013-02-19 16:12:00,
2013-02-19 09:27:00,22.7,10.0,30.27,WSW,237,0.0,2.0,59,0.00,,,0.00,weatherlink.com 1.10,2013-02-19 16:27:00,
2013-02-19 09:43:00,23.5,11.0,30.27,South,183,1.0,3.0,58,0.00,,,0.00,weatherlink.com 1.10,2013-02-19 16:43:00,
2013-02-19 09:58:00,23.5,11.0,30.27,ESE,117,3.0,4.0,60,0.00,,,0.00,weatherlink.com 1.10,2013-02-19 16:58:00,
2013-02-19 10:13:00,23.5,11.0,30.26,ESE,117,0.0,4.0,59,0.00,,,0.00,weatherlink.com 1.10,2013-02-19 17:13:00,
2013-02-19 10:28:00,23.8,11.0,30.25,ENE,69,1.0,5.0,59,0.00,,,0.00,weatherlink.com 1.10,2013-02-19 17:28:00,
2013-02-19 10:43:00,23.3,11.0,30.25,ESE,110,4.0,5.0,60,0.00,,,0.00,weatherlink.com 1.10,2013-02-19 17:43:00,
2013-02-19 10:58:00,23.5,11.0,30.24,ESE,110,5.0,7.0,60,0.00,,,0.00,weatherlink.com 1.10,2013-02-19 17:58:00,
2013-02-19 11:13:00,24.8,11.0,30.24,East,100,1.0,5.0,57,0.00,,,0.00,weatherlink.com 1.10,2013-02-19 18:13:00,
2013-02-19 11:28:00,26.3,12.0,30.23,North,9,2.0,4.0,54,0.00,,,0.00,weatherlink.com 1.10,2013-02-19 18:28:00,
2013-02-19 11:43:00,25.8,13.0,30.23,NE,40,1.0,5.0,59,0.00,,,0.00,weatherlink.com 1.10,2013-02-19 18:43:00,
2013-02-19 11:58:00,27.0,12.0,30.22,NNE,31,3.0,6.0,54,0.00,,,0.00,weatherlink.com 1.10,2013-02-19 18:58:00,
2013-02-19 12:13:00,27.0,12.0,30.20,NE,54,0.0,5.0,53,0.00,,,0.00,weatherlink.com 1.10,2013-02-19 19:13:00,
2013-02-19 12:28:00,27.0,11.0,30.20,NE,44,3.0,7.0,51,0.00,,,0.00,weatherlink.com 1.10,2013-02-19 19:28:00,
2013-02-19 12:43:00,28.5,11.0,30.19,East,98,3.0,5.0,48,0.00,,,0.00,weatherlink.com 1.10,2013-02-19 19:43:00,
2013-02-19 12:58:00,27.2,10.0,30.18,ENE,74,2.0,6.0,49,0.00,,,0.00,weatherlink.com 1.10,2013-02-19 19:58:00,
2013-02-19 13:13:00,28.1,10.0,30.18,NNE,18,6.0,6.0,46,0.00,,,0.00,weatherlink.com 1.10,2013-02-19 20:13:00,
2013-02-19 13:28:00,27.0,11.0,30.17,East,100,2.0,7.0,50,0.00,,,0.00,weatherlink.com 1.10,2013-02-19 20:28:00,
2013-02-19 13:43:00,29.0,12.0,30.16,East,87,0.0,5.0,49,0.00,,,0.00,weatherlink.com 1.10,2013-02-19 20:43:00,
2013-02-19 13:58:00,30.1,11.0,30.16,ESE,116,1.0,3.0,45,0.00,,,0.00,weatherlink.com 1.10,2013-02-19 20:58:00,
2013-02-19 14:13:00,29.4,9.0,30.15,East,87,2.0,8.0,43,0.00,,,0.00,weatherlink.com 1.10,2013-02-19 21:13:00,
2013-02-19 14:29:00,29.5,11.0,30.14,ENE,62,0.0,7.0,46,0.00,,,0.00,weatherlink.com 1.10,2013-02-19 21:29:00,
2013-02-19 14:43:00,32.1,11.0,30.14,ESE,102,0.0,2.0,41,0.00,,,0.00,weatherlink.com 1.10,2013-02-19 21:43:00,
2013-02-19 14:59:00,32.9,10.0,30.13,ENE,78,0.0,3.0,39,0.00,,,0.00,weatherlink.com 1.10,2013-02-19 21:59:00,
2013-02-19 15:13:00,31.5,11.0,30.12,ESE,122,0.0,4.0,42,0.00,,,0.00,weatherlink.com 1.10,2013-02-19 22:13:00,
2013-02-19 15:28:00,33.2,12.0,30.13,ESE,123,2.0,3.0,41,0.00,,,0.00,weatherlink.com 1.10,2013-02-19 22:28:00,
2013-02-19 15:44:00,29.3,12.0,30.13,East,92,2.0,7.0,49,0.00,,,0.00,weatherlink.com 1.10,2013-02-19 22:44:00,
2013-02-19 15:58:00,29.8,12.0,30.13,East,92,1.0,5.0,47,0.00,,,0.00,weatherlink.com 1.10,2013-02-19 22:58:00,
2013-02-19 16:14:00,30.1,13.0,30.12,East,92,2.0,5.0,49,0.00,,,0.00,weatherlink.com 1.10,2013-02-19 23:14:00,
2013-02-19 16:28:00,32.9,14.0,30.12,East,92,2.0,2.0,45,0.00,,,0.00,weatherlink.com 1.10,2013-02-19 23:28:00,
2013-02-19 16:44:00,33.5,14.0,30.11,East,92,2.0,3.0,44,0.00,,,0.00,weatherlink.com 1.10,2013-02-19 23:44:00,
2013-02-19 16:58:00,31.6,13.0,30.11,South,175,0.0,2.0,47,0.00,,,0.00,weatherlink.com 1.10,2013-02-19 23:58:00,
2013-02-19 17:13:00,30.6,14.0,30.11,South,175,2.0,4.0,50,0.00,,,0.00,weatherlink.com 1.10,2013-02-20 00:13:00,
2013-02-19 17:28:00,27.8,13.0,30.11,SW,225,2.0,5.0,55,0.00,,,0.00,weatherlink.com 1.10,2013-02-20 00:28:00,
2013-02-19 17:43:00,26.4,13.0,30.11,SW,215,3.0,6.0,58,0.00,,,0.00,weatherlink.com 1.10,2013-02-20 00:43:00,
2013-02-19 17:59:00,25.1,14.0,30.12,SW,215,0.0,2.0,63,0.00,,,0.00,weatherlink.com 1.10,2013-02-20 00:59:00,
2013-02-19 18:13:00,23.3,13.0,30.13,WSW,258,4.0,7.0,64,0.00,,,0.00,weatherlink.com 1.10,2013-02-20 01:13:00,
2013-02-19 18:29:00,22.7,13.0,30.13,WSW,258,0.0,3.0,66,0.00,,,0.00,weatherlink.com 1.10,2013-02-20 01:29:00,
2013-02-19 18:44:00,21.8,12.0,30.14,SW,224,2.0,4.0,66,0.00,,,0.00,weatherlink.com 1.10,2013-02-20 01:44:00,
2013-02-19 18:58:00,21.4,12.0,30.14,WNW,292,3.0,4.0,67,0.00,,,0.00,weatherlink.com 1.10,2013-02-20 01:58:00,
2013-02-19 19:13:00,21.1,11.0,30.14,WSW,241,3.0,4.0,66,0.00,,,0.00,weatherlink.com 1.10,2013-02-20 02:13:00,
2013-02-19 19:28:00,20.5,12.0,30.14,SW,224,1.0,4.0,69,0.00,,,0.00,weatherlink.com 1.10,2013-02-20 02:28:00,
2013-02-19 19:44:00,19.9,11.0,30.15,SW,224,2.0,3.0,69,0.00,,,0.00,weatherlink.com 1.10,2013-02-20 02:44:00,
2013-02-19 19:58:00,19.9,11.0,30.15,WSW,256,2.0,6.0,67,0.00,,,0.00,weatherlink.com 1.10,2013-02-20 02:58:00,
2013-02-19 20:13:00,19.2,11.0,30.14,WSW,256,2.0,4.0,69,0.00,,,0.00,weatherlink.com 1.10,2013-02-20 03:13:00,
2013-02-19 20:29:00,19.1,10.0,30.14,SW,223,3.0,5.0,69,0.00,,,0.00,weatherlink.com 1.10,2013-02-20 03:29:00,
2013-02-19 20:44:00,18.3,10.0,30.14,WSW,251,4.0,5.0,70,0.00,,,0.00,weatherlink.com 1.10,2013-02-20 03:44:00,
2013-02-19 20:59:00,18.1,10.0,30.15,WSW,256,1.0,4.0,70,0.00,,,0.00,weatherlink.com 1.10,2013-02-20 03:59:00,
2013-02-19 21:14:00,17.8,10.0,30.14,WSW,256,2.0,5.0,70,0.00,,,0.00,weatherlink.com 1.10,2013-02-20 04:14:00,
2013-02-19 21:29:00,18.0,10.0,30.14,WSW,256,4.0,4.0,70,0.00,,,0.00,weatherlink.com 1.10,2013-02-20 04:29:00,
2013-02-19 21:44:00,18.3,10.0,30.14,WSW,239,5.0,5.0,69,0.00,,,0.00,weatherlink.com 1.10,2013-02-20 04:44:00,
2013-02-19 21:59:00,19.9,11.0,30.13,SW,220,6.0,7.0,67,0.00,,,0.00,weatherlink.com 1.10,2013-02-20 04:59:00,
2013-02-19 22:14:00,20.3,10.0,30.12,SW,214,3.0,7.0,65,0.00,,,0.00,weatherlink.com 1.10,2013-02-20 05:14:00,
2013-02-19 22:29:00,19.1,9.0,30.12,SW,226,2.0,7.0,66,0.00,,,0.00,weatherlink.com 1.10,2013-02-20 05:29:00,
2013-02-19 22:44:00,17.8,9.0,30.12,WSW,245,2.0,5.0,68,0.00,,,0.00,weatherlink.com 1.10,2013-02-20 05:44:00,
2013-02-19 22:59:00,18.3,9.0,30.12,WSW,245,3.0,5.0,66,0.00,,,0.00,weatherlink.com 1.10,2013-02-20 05:59:00,
2013-02-19 23:14:00,18.3,9.0,30.11,WSW,245,2.0,4.0,66,0.00,,,0.00,weatherlink.com 1.10,2013-02-20 06:14:00,
2013-02-19 23:29:00,17.3,8.0,30.11,WSW,246,1.0,5.0,68,0.00,,,0.00,weatherlink.com 1.10,2013-02-20 06:29:00,
2013-02-19 23:44:00,16.7,8.0,30.11,West,281,4.0,6.0,68,0.00,,,0.00,weatherlink.com 1.10,2013-02-20 06:44:00,
2013-02-19 23:59:00,16.9,8.0,30.10,West,281,0.0,3.0,69,0.00,,,0.00,weatherlink.com 1.10,2013-02-20 06:59:00,